Flag Weather past 2 weeks in Bad Oeynhausen, North Rhine-Westphalia, Germany

Now
34 °F

Passing clouds.


Feels Like: 26 °F
Forecast: 31 / 38 °F
Wind: 9 mph from East

Location: Bueckeburg

Current Time: Nov 29, 2014 at 8:19:59 AM

Latest Report: Nov 29, 2014 at 7:47 AM


Visibility: 4 mi

Pressure: 30.07 "Hg

Humidity: 87%

Dew point: 30 °F

Location of Bad OeynhausenLocation

Historic Weather in Bad Oeynhausen — Graph

°F

Bad Oeynhausen temperature yesterday

Maximum temperature yesterday: 39 °F (at 12:20 AM)
Minimum temperature yesterday: 36 °F (at 3:20 AM)
Average temperature yesterday: 37 °F

Past Weeks' High & Low Weather Summary

 TemperatureHumidityPressure
High57 °F (Nov 23, 1:20 PM)100% (Nov 16, 10:20 AM)30.36 "Hg (Nov 16, 10:20 AM)
Low36 °F (Nov 21, 7:20 AM)59% (Nov 23, 2:20 PM)29.50 "Hg (Nov 16, 11:20 AM)
Average45 °F84%30.00 "Hg
* Reported Nov 14 6:20 AM — Nov 29 6:20 AM, Bad Oeynhausen, Weather by CustomWeather, © 2014

Note: Actual official high and low records may vary slightly from our data, if they occured in-between our weather recording intervals... More about our weather records

Advertising

Bad Oeynhausen weather history for previous 24 hours

 ConditionsComfort  
Time TempWeatherWind HumidityBarometerVisibility
6:20 AM
Nov 29
36 °FPassing clouds.10 mph81%30.04 "HgN/A
5:20 AM36 °FOvercast.9 mph81%30.04 "Hg5 mi
4:20 AM36 °FOvercast.12 mph81%30.04 "Hg5 mi
3:20 AM36 °FOvercast.8 mph81%30.04 "Hg5 mi
2:20 AM36 °FOvercast.13 mph81%30.04 "Hg5 mi
1:20 AM36 °FOvercast.10 mph81%30.04 "Hg5 mi
12:20 AM36 °FOvercast.13 mph87%30.04 "Hg5 mi
11:20 PM
Nov 28
36 °FOvercast.13 mph87%30.04 "Hg5 mi
10:20 PM37 °FOvercast.8 mph81%30.04 "HgN/A
9:20 PM37 °FPassing clouds.10 mph75%30.01 "HgN/A
8:20 PM36 °FPassing clouds.10 mph81%30.01 "HgN/A
7:20 PM36 °FPassing clouds.12 mph81%30.01 "HgN/A
6:20 PM36 °FPassing clouds.14 mph81%30.01 "Hg5 mi
5:20 PM36 °FPassing clouds.13 mph81%29.98 "Hg5 mi
4:20 PM36 °FPassing clouds.13 mph81%29.98 "Hg5 mi
3:20 PM37 °FPartly sunny.13 mph81%29.95 "HgN/A
2:20 PM37 °FPartly sunny.12 mph81%29.95 "HgN/A
1:20 PM37 °FPartly sunny.12 mph81%29.95 "HgN/A
12:20 PM39 °FPartly sunny.9 mph75%29.95 "HgN/A
11:20 AM37 °FPartly sunny.10 mph81%29.95 "HgN/A
10:20 AM37 °FScattered clouds.10 mph81%29.95 "HgN/A
9:20 AM36 °FScattered clouds.9 mph81%29.92 "Hg6 mi
8:20 AM36 °FScattered clouds.12 mph81%29.92 "Hg6 mi
Weather by CustomWeather, © 2014

See weather overviewHow to use our weather pages